Location: Heisler
(52.6701°N, 112.2239°W)
Time: 03:36:09
(UTC+00:00)

ISS - Visible Passes

Search period start: 07 December 2021 00:00
Search period end: 17 December 2021 00:00
Orbit: 417 x 422 km, 51.6° (Epoch: 06 December)

Date Brightness Start Highest point End Pass type
(mag) Time Alt. Az. Time Alt. Az. Time Alt. Az.
07 Dec -1.6 00:45:34 10° W 00:48:27 26° SSW 00:51:20 10° SSE visible
07 Dec -2.0 23:58:04 10° W 00:01:11 34° SSW 00:04:18 10° SE visible
09 Dec -0.6 00:48:18 10° WSW 00:50:05 14° SW 00:51:52 10° S visible
10 Dec -0.7 00:00:24 10° W 00:02:54 19° SW 00:05:22 10° SSE visible
